Location: Utrecht
(52.0907°N, 5.1214°E)
Time: 23:51:27
(UTC+02:00)

DIWATA 2B (PO-101) - Pass Details

Date: 30 June 2022
Orbit: 583 x 599 km, 98.0° (Epoch: 16 August)

Event Time Altitude Azimuth Distance (km) Brightness Sun altitude
Exits shadow 01:54:09 - 118° (ESE) 2,840 ? -14.7°
Reaches altitude 10° 01:56:54 10° 99° (E) 1,944 ? -14.7°
Maximum altitude 01:59:40 17° 58° (ENE) 1,522 ? -14.6°
Drops below altitude 10° 02:02:28 10° 16° (NNE) 1,954 ? -14.6°
Sets 02:05:13 0° 357° (N) 2,861 ? -14.6°
